Regional Weather Roundup
Issued by NWS San Diego, CA

Home | Current Version | Previous Version | Text Only | Print | Product List | Glossary On
Versions: 1 2 3 4 5 6 7 8 9 10 11 12 13 14 15 16 17 18 19 20 21 22 23 24 25 26 27 28 29 30 31 32 33 34 35 36 37 38 39 40 41 42 43 44 45 46 47 48 49 50
000
ASUS46 KSGX 110810
RWRSGX

SAN DIEGO HOURLY WEATHER ROUNDUP
NATIONAL WEATHER SERVICE SAN DIEGO CA
100 AM PDT FRI JUL 11 2014

NOTE: "FAIR" INDICATES FEW OR NO CLOUDS BELOW 12,000 FEET WITH NO
SIGNIFICANT WEATHER AND/OR OBSTRUCTIONS TO VISIBILITY.

CAZ042-043-060-061-PZZ750-775-110900-

GREATER SAN DIEGO AREA

CITY           SKY/WX    TMP DP  RH WIND       PRES   REMARKS
LINDBERGH FLD  MOCLDY    71  62  73 NE5       29.97F
POINT LOMA       N/A     67  62  84 NW8         N/A
NATIONAL CITY    N/A     69  64  84 CALM      29.97S
CHULA VISTA      N/A     67  63  86 CALM      29.91R
IMPERIAL BEACH CLOUDY    70  63  78 NW6       29.96F
BROWN FIELD    MOCLDY    65  60  84 CALM      29.97S
MIRAMAR MCAS   MOCLDY    64  58  80 NW3       29.97R
MONTGOMERY FLD   N/A    N/A N/A N/A MISG      29.97S

$$

NORTH SAN DIEGO COUNTY

CITY           SKY/WX    TMP DP  RH WIND       PRES   REMARKS
CAMP PENDLETON MOCLDY    67  61  81 CALM      29.96S
OCEANSIDE AP   CLOUDY    67  63  87 W3        29.95S
VISTA            N/A     67  63  86 CALM      29.94S
CARLSBAD       CLOUDY    69  62  78 CALM      29.96R
DEL MAR          N/A     68  64  87 CALM      29.98R
LA JOLLA SCRIP   N/A     68  65  89 W3        29.93S
FALLBROOK        N/A     66  66 100 CALM      29.95S
ESCONDIDO        N/A     67  62  84 SW3       29.98R
SAN MARCOS       N/A     66  62  85 CALM      29.94R
POWAY            N/A     64  59  86 E3        29.96S
R. PENASQUITOS   N/A     65  62  89 CALM      29.97R

$$

EAST SAN DIEGO COUNTY

CITY           SKY/WX    TMP DP  RH WIND       PRES   REMARKS
RAMONA         CLEAR     59  55  87 W7        29.99R
SANTEE LAKES     N/A     64  61  88 W3        29.97S
GILLESPIE FLD  FAIR      64  61  88 CALM      29.98F
LA MESA          N/A     66  63  88 CALM      29.90S
JAMUL            N/A     63  60  91 CALM      29.94S
DESCANSO N       N/A     60  38  44 E5        29.82S
MT. LAGUNA OBS   N/A     59  36  43 W12       29.74F
CAMPO            N/A     59  48  67 NE8       30.00S

$$

ORANGE COUNTY AND THE LOS ANGELES BASIN

CITY           SKY/WX    TMP DP  RH WIND       PRES   REMARKS
JOHN WAYNE AP  CLEAR     70  61  73 W5        29.96R
LAGUNA BEACH     N/A     64  61  88 CALM      29.91S
LAKE FOREST FR   N/A     63  57  82 CALM      29.85S
SANTA ANA        N/A     68  62  80 CALM      29.91S
HUNTINGTON BCH   N/A     66  63  89 SW1       29.98S
LOS ALAMITOS   CLOUDY    67  62  84 NW5       29.96S
FULLERTON      CLEAR     68  61  78 CALM      29.95S
LONG BEACH     CLOUDY    67  61  81 NW7       29.96S
L.A. AP        CLOUDY    67  60  78 SW10      29.97R
L.A. DOWNTOWN  CLOUDY    67  60  78 CALM      29.96R

$$

THE INLAND EMPIRE

CITY           SKY/WX    TMP DP  RH WIND       PRES   REMARKS
CORONA         CLEAR     64  59  84 CALM      29.97S
CHINO          CLEAR     64  61  90 SW5       29.97F
ONTARIO        CLEAR     68  60  75 W5        29.96F
RIVERSIDE AP   CLEAR     68  59  73 W3        29.97S
RIV CYN CREST    N/A     69  66  90 W1        29.95S
MORENO VALLEY    N/A     68  61  77 CALM      28.09S
MARCH ARB      CLEAR     66  59  77 CALM      29.99S
HORSETHIEF CYN   N/A     65  51  60 SW1       29.97S
PERRIS           N/A     67  60  75 SE2         N/A
MENIFEE          N/A     68  63  83 SW1       30.03F
HEMET EAST       N/A     67  47  48 CALM      29.95S
FRENCH VALLEY  FAIR      64  59  82 CALM      29.99S
TEMECULA         N/A     66  62  89 CALM      29.94S

$$

SAN BERNARDINO AND RIVERSIDE COUNTY MOUNTAINS

CITY           SKY/WX    TMP DP  RH WIND       PRES   REMARKS
BIG BEAR AP    CLEAR     50  36  57 CALM      30.24S
BIG BEAR SHEA    N/A     47  35  61 CALM      29.91R
PINE COVE        N/A     58  38  47 N3        29.88F

$$

SOUTHERN DESERT INCLUDING THE COACHELLA VALLEY

CITY           SKY/WX    TMP DP  RH WIND       PRES   REMARKS
PALM SPRINGS   CLEAR     88  47  24 NW8       29.82R
THOUSAND PALMS   N/A     84  53  33 N12       29.78R
PALM DESERT      N/A     84  55  37 CALM      29.66F
THERMAL        CLEAR     88  51  28 N14       29.76R
BLYTHE         CLEAR     88  44  21 SE8       29.79R
IMPERIAL AP    CLEAR     85  45  24 W9        29.79S
EL CENTRO NAS  CLEAR     87  43  21 W17       29.79S
YUMA AZ        CLEAR     89  45  21 SW5       29.81S

$$

UPPER DESERT

CITY           SKY/WX    TMP DP  RH WIND       PRES   REMARKS
VICTORVILLE AP CLEAR     70  46  43 CALM      30.00S
HESPERIA         N/A     73  45  37 W3        29.95R
APPLE VALLEY     N/A     71  48  45 CALM      30.06S
GRAY BUTTE AP  FAIR      67  44  41 E3        29.99S
PALMDALE       CLEAR     75  40  28 SW17      29.98S
LANCASTER      CLEAR     73  44  35 SW13      29.96S
EDWARDS AFB    CLEAR     73  41  32 SW13      29.94R
DAGGETT        CLEAR     81  39  22 NW13      29.91R
29 PALMS N     CLEAR     79  45  29 CALM      29.97S
NEEDLES        CLEAR     86  63  45 N10       29.84R

$$

REGIONAL REPORTS

CITY           SKY/WX    TMP DP  RH WIND       PRES   REMARKS
SANTA BARBARA  CLEAR     64  58  80 E8        29.93F
SANDBERG       CLEAR     67  44  43 SW6       30.10F
MT. WILSON       N/A    N/A N/A N/A MISG        N/A
LAS VEGAS NV   MOCLDY    80  59  48 S8        29.90F
PHOENIX AZ     MOCLDY    93  61  34 W7        29.82S
TIJUANA        MOCLDY    66  59  77 W5        30.00S

$$

OFFSHORE ISLANDS

CITY           SKY/WX    TMP DP  RH WIND       PRES   REMARKS
CATALINA ARPT  FOG       59  57  93 SW8       29.99S VSB 1/2
SAN NICOLAS IS CLOUDY   N/A N/A N/A W13       29.97S

$$

MARINE AND OFFSHORE BUOY REPORTS

STATION/POSITION SKY/WX   TEMP    WIND        PRES    SWELL
                          AIR SEA DIR/SP/G            HT/PER/DIR
                          (F)     (DEG/KT/KT) (MB)    (FT/S/D)
TANNER BANKS               61 63  320/ 12/ 16 1015.3F   3/220/12
S CLEMENTE BASIN           65 69  310/  8/ 10 1015.1R   3/170/12
SO. S. ROSA ISLA           64 67  320/ 14/ 16 1014.3F   3/11
W. S. BARBARA CH           62 64  330/ 16/ 21 1013.8F
M. S. BARBARA CH           64 68  260/ 16/ 17 1013.9F
S. MONICA BASIN            65 70  330/  6/  8 1014.2R   3/280/ 5
S PEDRO CHANNEL               71                N/A     2/190/12
DANA POINT                    73                N/A     2/190/13
CMP PENDLETON NS              74                N/A     2/210/13
OCEANSIDE OFFSHR              72                N/A     2/210/13
TORREY PINES OTR              73                N/A     2/200/13
LA JOLLA 1                 70 74  330/  4/  5 1014.7S
MISSION BAY BUOY              74                N/A     2/220/12
SAN DIEGO BAY                 76              1015.0S
POINT LOMA SOUTH              72                N/A     2/200/14

$$



USA.gov is the U.S. government's official web portal to all federal, state and local government web resources and services.